Zurück zum Katalog

STARLINK-32895

AktivKommunikationVLEO
NORAD 63081·PAYLOAD·🇺🇸 United States

Gestartet Feb 23, 2025 von Vandenberg Space Force Base

Loading…

Nächste Überflüge (nächste 24 Stunden)

TLE

AktuellSource: CelesTrak SupGP

Epoche: Sep 14, 2026, 20:52 UTC

1 63081C 25037E   26257.86993056  .00054178  00000+0  18850-2 0  2578
2 63081  70.0004 235.9270 0003101 266.1374 252.7305 15.29547165    13

Verfolge STARLINK-32895 in Echtzeit mit AllMySat

Download on the App Store